TimeCDT,TemperatureF,Dew PointF,Humidity,Sea Level PressureIn,VisibilityMPH,Wind Direction,Wind SpeedMPH,Gust SpeedMPH,PrecipitationIn,Events,Conditions,WindDirDegrees,DateUTC
12:53 AM,63.0,48.9,60,30.27,10.0,East,3.5,-,N/A,,Clear,80,2013-04-26 05:53:00
1:53 AM,62.1,48.9,62,30.24,10.0,ENE,5.8,-,N/A,,Clear,70,2013-04-26 06:53:00
2:53 AM,61.0,48.9,64,30.24,10.0,ENE,5.8,-,N/A,,Clear,60,2013-04-26 07:53:00
3:53 AM,60.1,51.1,72,30.21,10.0,East,5.8,-,N/A,,Clear,80,2013-04-26 08:53:00
4:53 AM,60.1,51.1,72,30.21,10.0,East,4.6,-,N/A,,Clear,80,2013-04-26 09:53:00
5:53 AM,60.1,52.0,75,30.21,10.0,East,5.8,-,N/A,,Clear,80,2013-04-26 10:53:00
6:53 AM,61.0,53.1,75,30.23,10.0,East,5.8,-,N/A,,Clear,90,2013-04-26 11:53:00
7:12 AM,60.8,53.6,77,30.24,10.0,East,4.6,-,N/A,,Mostly Cloudy,90,2013-04-26 12:12:00
7:48 AM,64.4,55.4,73,30.24,10.0,East,5.8,-,N/A,,Scattered Clouds,100,2013-04-26 12:48:00
7:53 AM,64.9,55.0,70,30.25,10.0,East,5.8,-,N/A,,Partly Cloudy,90,2013-04-26 12:53:00
8:27 AM,68.0,55.4,64,30.25,10.0,East,6.9,-,N/A,,Mostly Cloudy,100,2013-04-26 13:27:00
8:53 AM,69.1,57.0,65,30.25,10.0,East,8.1,-,N/A,,Overcast,80,2013-04-26 13:53:00
9:53 AM,73.0,59.0,61,30.25,10.0,SE,9.2,-,N/A,,Overcast,140,2013-04-26 14:53:00
10:53 AM,75.9,62.1,62,30.25,10.0,ESE,9.2,-,N/A,,Overcast,120,2013-04-26 15:53:00
11:53 AM,77.0,63.0,62,30.25,10.0,SE,9.2,-,N/A,,Overcast,140,2013-04-26 16:53:00
12:53 PM,78.1,64.0,62,30.24,10.0,South,8.1,-,N/A,,Overcast,170,2013-04-26 17:53:00
1:32 PM,78.8,64.4,61,30.24,10.0,South,10.4,-,N/A,,Overcast,180,2013-04-26 18:32:00
1:53 PM,80.1,66.0,62,30.23,10.0,South,11.5,-,N/A,,Overcast,170,2013-04-26 18:53:00
2:53 PM,79.0,66.0,64,30.21,10.0,SSE,12.7,-,N/A,,Mostly Cloudy,160,2013-04-26 19:53:00
3:53 PM,81.0,66.0,60,30.19,10.0,SE,8.1,-,N/A,,Mostly Cloudy,140,2013-04-26 20:53:00
4:53 PM,79.0,64.9,62,30.18,10.0,South,11.5,-,N/A,,Scattered Clouds,180,2013-04-26 21:53:00
5:28 PM,80.6,66.2,61,30.18,10.0,South,10.4,-,N/A,,Mostly Cloudy,190,2013-04-26 22:28:00
5:53 PM,81.0,66.9,62,30.18,10.0,SSE,10.4,17.3,N/A,,Mostly Cloudy,160,2013-04-26 22:53:00
6:20 PM,78.8,66.2,65,30.18,10.0,South,10.4,-,N/A,,Scattered Clouds,180,2013-04-26 23:20:00
6:53 PM,78.1,66.9,68,30.18,10.0,South,10.4,-,N/A,,Clear,180,2013-04-26 23:53:00
7:53 PM,75.0,66.9,76,30.17,10.0,SSE,8.1,-,N/A,,Clear,160,2013-04-27 00:53:00
8:53 PM,73.0,66.9,81,30.19,10.0,SSE,6.9,-,N/A,,Clear,160,2013-04-27 01:53:00
9:53 PM,72.0,66.9,84,30.20,10.0,SE,6.9,-,N/A,,Clear,140,2013-04-27 02:53:00
10:53 PM,71.1,66.0,84,30.20,10.0,SE,8.1,-,N/A,,Clear,130,2013-04-27 03:53:00
11:53 PM,69.1,66.0,90,30.19,10.0,SE,8.1,-,N/A,,Mostly Cloudy,140,2013-04-27 04:53:00